[[{"header":{"parameterUnit":"m.s-1","parameterCategory":1,"la1":30.2991,"la2":30.254,"lo1":-89.0895,"lo2":-89.0444,"dy":0.0017,"dx":0.0017,"nx":28,"ny":28,"refTime":"2024-02-05T09:00:00:Z","depth":0,"parameterNumber":2,"parameterNumberName":"U-component_of_WINDS"},"data":[0,0,0,0,0,0,0,0,0,0,0,0,0,0,0,0,0,0,0,0,0,0,0,0,0,0,0,0,0,0,0,0,0,0,0,0,0,0,0,0,0,0,0,0,0,0,0,0,0,0,0,0,0,0,0,0,0,0,1.8617,1.8617,0,1.8622,1.8622,1.8622,1.8622,1.8622,1.8622,1.8621,1.8626,1.8626,1.8626,0,0,0,0,0,0,0,0,0,0,0,0,0,1.8607,1.8607,1.8617,1.8617,1.8617,1.8622,1.8622,1.8622,1.8622,1.8622,1.8622,1.8621,1.8626,1.8626,1.8626,0,0,0,0,0,0,0,0,0,0,0,0,0,1.8611,1.8607,1.8617,1.8617,1.8617,1.8622,1.8622,1.8622,1.8622,1.8622,1.8622,1.8621,1.8626,1.8626,1.8626,1.863,0,0,1.8627,1.8627,0,0,0,0,0,0,0,0,1.8611,1.8612,1.8617,1.8617,1.8617,1.8621,1.862,1.8624,1.8622,1.862,1.8621,1.8621,1.8624,1.8625,1.8626,1.863,1.863,1.8627,1.8627,1.8627,1.8627,0,0,0,0,0,0,0,1.8611,1.8611,1.8619,1.8617,1.8617,1.8617,1.8618,1.8621,1.8623,1.862,1.862,1.8621,1.8624,1.8626,1.8626,1.863,1.8627,1.8627,1.8628,1.8628,1.8638,1.8638,0,0,0,0,0,0,1.861,1.8611,1.8618,1.8619,1.8614,1.8618,1.8618,1.862,1.8623,1.8623,1.8621,1.8621,1.8625,1.8626,1.8626,1.863,1.8627,1.8628,1.8628,1.8638,1.8638,1.8638,0,0,0,0,0,0,1.861,1.8611,1.8618,1.8615,1.8616,1.8618,1.862,1.862,1.8621,1.8623,1.8623,1.8622,1.8625,1.8626,1.8629,1.8631,1.8628,1.8628,1.8638,1.8638,1.8638,1.8639,0,0,0,0,0,0,1.861,1.8611,1.8612,1.8615,1.8616,1.8621,1.862,1.862,1.8622,1.8622,1.8624,1.8624,1.8625,1.8629,1.8629,1.8631,1.8628,1.8638,1.8638,1.8638,1.8639,1.864,1.864,0,0,0,0,0,1.861,1.8612,1.8612,1.8613,1.8618,1.8621,1.8622,1.8623,1.8622,1.8623,1.8625,1.8624,1.863,1.8629,1.863,1.8631,1.8638,1.8638,1.8638,1.8639,1.8639,1.864,0,0,0,0,0,0,1.8609,1.8613,1.8613,1.8616,1.8619,1.8621,1.8623,1.8623,1.8625,1.8625,1.8626,1.8627,1.863,1.8631,1.8629,1.8635,1.8634,1.8634,1.8634,1.8635,1.8635,1.8635,1.8628,0,0,0,0,0,1.861,1.8612,1.8615,1.8618,1.8619,1.8621,1.8622,1.8623,1.8625,1.8626,1.8628,1.863,1.8632,1.8633,1.8636,1.8639,1.864,1.8641,1.8641,1.8642,1.8642,1.8644,1.8645,1.8639,1.8639,1.8639,0,0,1.861,1.8613,1.8614,1.8618,1.862,1.8622,1.8622,1.8624,1.8626,1.8626,1.863,1.8631,1.8633,1.8637,1.8638,1.8638,1.8644,1.8642,1.8642,1.8642,1.8644,1.8645,1.8645,1.8639,1.8639,1.8639,0,0,1.8613,1.8615,1.8618,1.862,1.8623,1.8624,1.8625,1.8628,1.8628,1.8632,1.8632,1.8634,1.8638,1.864,1.8642,1.8646,1.8645,1.8646,1.8648,1.865,1.8651,1.8651,1.8652,1.8653,1.8647,1.8647,1.8647,0,1.8614,1.8618,1.8619,1.8622,1.8624,1.8625,1.8628,1.8629,1.8633,1.8634,1.8633,1.8639,1.864,1.8644,1.8645,1.8646,1.8647,1.8646,1.865,1.8651,1.8651,1.8653,1.8653,1.8647,1.8647,1.8647,1.8647,0,1.8618,1.8621,1.8623,1.8627,1.8629,1.8632,1.8634,1.8636,1.8636,1.8637,1.8641,1.8643,1.8646,1.8647,1.8647,1.8651,1.8651,1.865,1.8649,1.8652,1.8653,1.8654,1.8647,1.8647,1.8647,1.8647,0,0,1.8621,1.8626,1.8626,1.8628,1.8632,1.8634,1.8637,1.864,1.8641,1.8644,1.8646,1.865,1.865,1.8651,1.8652,1.8654,1.8657,1.8653,1.8653,1.8654,1.8662,1.8662,1.8662,1.8657,1.8657,1.8657,1.8661,0,1.8624,1.8629,1.8631,1.8636,1.8638,1.8639,1.8642,1.8644,1.8646,1.8648,1.865,1.8652,1.8652,1.8653,1.8655,1.8656,1.8659,1.8656,1.8659,1.8659,1.8659,1.8663,1.8663,1.8667,1.8662,1.8662,1.8662,0,1.8628,1.8631,1.8636,1.864,1.8641,1.8643,1.8646,1.8649,1.8651,1.8652,1.8654,1.8655,1.8658,1.8657,1.8661,1.8659,1.8661,1.8662,1.8662,1.8662,1.8661,1.8663,1.8668,1.8668,1.8663,1.8663,1.8663,0,1.8629,1.8634,1.8638,1.864,1.8644,1.8645,1.8647,1.865,1.8652,1.8655,1.8656,1.8659,1.866,1.8663,1.8664,1.8663,1.8668,1.8667,1.8669,1.8669,1.867,1.867,1.8675,1.8671,1.8671,1.8671,1.8671,0,1.8632,1.8635,1.8639,1.8641,1.8645,1.8646,1.865,1.8652,1.8654,1.8657,1.8658,1.866,1.8662,1.8664,1.8666,1.8669,1.867,1.867,1.8671,1.867,1.867,1.8671,1.8671,1.8671,1.8671,1.8671,1.8671,0,1.8634,1.8637,1.8641,1.8644,1.8646,1.8648,1.8651,1.8653,1.8655,1.8658,1.8659,1.8662,1.8665,1.8667,1.867,1.8671,1.8675,1.8675,1.8674,1.8674,1.8676,1.8676,1.8681,1.8682,1.8678,1.8678,1.8678,0,1.8636,1.8638,1.8643,1.8645,1.8646,1.865,1.8652,1.8654,1.8656,1.8659,1.8661,1.8665,1.8667,1.8672,1.8674,1.8677,1.8677,1.8679,1.8678,1.8677,1.8677,1.8677,1.8677,1.8679,1.8679,1.8679,1.8679,0,1.8639,1.864,1.8643,1.8647,1.8649,1.8652,1.8655,1.8657,1.8659,1.8661,1.8665,1.8667,1.8671,1.8674,1.8678,1.8679,1.868,1.868,1.8681,1.868,1.8679,1.868,1.8675,1.868,1.868,1.868,1.868,1.868,1.8641,1.8643,1.8646,1.865,1.8652,1.8655,1.8657,1.866,1.8663,1.8666,1.8668,1.8671,1.8674,1.8679,1.868,1.8683,1.8683,1.8684,1.8684,1.8684,1.8684,1.8679,1.8684,1.8684,1.8684,1.8684,1.8684,0,1.8644,1.8646,1.8649,1.8653,1.8656,1.8657,1.866,1.8662,1.8666,1.8669,1.8671,1.8675,1.8679,1.8681,1.8684,1.8686,1.8686,1.8687,1.8687,1.8687,1.8684,1.8683,1.8687,1.8687,1.8687,1.8687,1.8687,1.8687,1.8645,1.8649,1.8651,1.8656,1.8659,1.8663,1.8664,1.8667,1.8669,1.8674,1.8677,1.8678,1.8681,1.8685,1.8688,1.8688,1.8689,1.869,1.8691,1.8688,1.8687,1.8687,1.8686,1.869,1.869,1.8693,1.8693,1.8693]},{"header":{"parameterUnit":"m.s-1","parameterCategory":1,"la1":30.2991,"la2":30.254,"lo1":-89.0895,"lo2":-89.0444,"dy":0.0017,"dx":0.0017,"nx":28,"ny":28,"refTime":"2024-02-05T09:00:00:Z","depth":0,"parameterNumber":3,"parameterNumberName":"V-component_of_WINDS"},"data":[0,0,0,0,0,0,0,0,0,0,0,0,0,0,0,0,0,0,0,0,0,0,0,0,0,0,0,0,0,0,0,0,0,0,0,0,0,0,0,0,0,0,0,0,0,0,0,0,0,0,0,0,0,0,0,0,0,0,-7.2417,-7.2418,0,-7.2492,-7.2493,-7.2494,-7.2383,-7.2379,-7.2375,-7.2371,-7.2445,-7.2451,-7.2456,0,0,0,0,0,0,0,0,0,0,0,0,0,-7.2174,-7.2179,-7.2417,-7.2418,-7.2419,-7.2492,-7.2493,-7.2494,-7.2383,-7.2379,-7.2374,-7.237,-7.2443,-7.245,-7.2457,0,0,0,0,0,0,0,0,0,0,0,0,0,-7.2268,-7.2181,-7.2417,-7.2373,-7.2369,-7.2492,-7.2493,-7.2495,-7.2384,-7.2379,-7.2373,-7.2367,-7.2441,-7.2449,-7.2458,-7.2626,0,0,-7.2483,-7.2487,0,0,0,0,0,0,0,0,-7.2263,-7.2277,-7.2378,-7.2376,-7.2372,-7.2422,-7.2435,-7.2539,-7.2386,-7.2379,-7.2371,-7.2364,-7.2442,-7.245,-7.2477,-7.263,-7.2633,-7.2484,-7.2489,-7.2493,-7.2495,0,0,0,0,0,0,0,-7.2256,-7.2273,-7.2447,-7.238,-7.2376,-7.2348,-7.2355,-7.2454,-7.2442,-7.2379,-7.2371,-7.2382,-7.2439,-7.2469,-7.2478,-7.2634,-7.2484,-7.2491,-7.2496,-7.25,-7.2929,-7.2935,0,0,0,0,0,0,-7.2256,-7.2268,-7.2444,-7.2449,-7.2302,-7.2357,-7.2365,-7.2412,-7.2441,-7.2439,-7.2386,-7.2376,-7.2458,-7.2468,-7.248,-7.268,-7.2493,-7.25,-7.2505,-7.2922,-7.293,-7.2937,0,0,0,0,0,0,-7.2251,-7.2272,-7.2441,-7.2357,-7.2376,-7.2367,-7.2422,-7.2417,-7.2446,-7.2447,-7.2443,-7.2419,-7.2453,-7.2468,-7.2591,-7.2681,-7.2504,-7.2512,-7.2915,-7.2925,-7.2934,-7.308,0,0,0,0,0,0,-7.2244,-7.2271,-7.2336,-7.2359,-7.2381,-7.2553,-7.2427,-7.2422,-7.2461,-7.2449,-7.2476,-7.2475,-7.245,-7.2579,-7.2599,-7.2689,-7.2518,-7.2907,-7.2919,-7.2931,-7.3068,-7.3094,-7.3116,0,0,0,0,0,-7.2236,-7.2373,-7.234,-7.2362,-7.2462,-7.2558,-7.257,-7.2539,-7.2469,-7.2534,-7.2534,-7.2474,-7.2667,-7.2593,-7.2614,-7.2708,-7.2901,-7.2916,-7.293,-7.3057,-7.3089,-7.3116,0,0,0,0,0,0,-7.236,-7.2376,-7.2339,-7.2488,-7.2523,-7.2539,-7.2619,-7.2574,-7.2628,-7.2614,-7.2572,-7.2579,-7.2711,-7.2721,-7.2638,-7.2873,-7.2772,-7.2792,-7.2861,-7.2892,-7.2916,-7.2911,-7.2525,0,0,0,0,0,-7.2405,-7.2483,-7.2492,-7.2622,-7.2642,-7.2628,-7.2669,-7.2642,-7.2676,-7.2689,-7.2698,-7.2733,-7.2801,-7.2847,-7.2909,-7.3068,-7.3073,-7.3143,-7.3168,-7.3188,-7.3205,-7.329,-7.3322,-7.2984,-7.2984,-7.2984,0,0,-7.2498,-7.2516,-7.2568,-7.2648,-7.2672,-7.2752,-7.2641,-7.2731,-7.279,-7.2703,-7.282,-7.2828,-7.2863,-7.3005,-7.3068,-7.3018,-7.3299,-7.3206,-7.3222,-7.3229,-7.3308,-7.334,-7.3369,-7.2994,-7.2992,-7.2991,0,0,-7.271,-7.2731,-7.2843,-7.2869,-7.2907,-7.2897,-7.2924,-7.2948,-7.295,-7.3067,-7.3004,-7.3073,-7.3191,-7.3219,-7.3249,-7.3472,-7.3419,-7.3493,-7.3621,-7.3704,-7.3731,-7.3754,-7.3834,-7.3864,-7.351,-7.3511,-7.3511,0,-7.282,-7.2941,-7.2906,-7.3001,-7.3038,-7.2963,-7.3076,-7.3103,-7.3159,-7.3186,-7.3129,-7.3277,-7.3295,-7.3443,-7.3497,-7.3524,-7.3553,-7.349,-7.373,-7.3753,-7.3775,-7.385,-7.3881,-7.352,-7.3519,-7.3518,-7.3517,0,-7.3075,-7.316,-7.3245,-7.3303,-7.335,-7.3453,-7.3433,-7.3484,-7.3453,-7.3449,-7.3569,-7.3589,-7.3654,-7.3687,-7.3657,-7.3831,-7.3799,-7.3737,-7.3635,-7.3816,-7.3887,-7.3915,-7.3532,-7.3529,-7.3526,-7.3524,0,0,-7.3367,-7.3405,-7.3437,-7.3463,-7.3499,-7.3563,-7.3663,-7.3729,-7.3773,-7.3814,-7.3897,-7.3999,-7.3942,-7.3976,-7.3949,-7.4022,-7.4198,-7.3951,-7.3951,-7.3997,-7.4391,-7.4438,-7.4473,-7.4163,-7.4169,-7.4173,-7.4389,0,-7.3579,-7.3753,-7.3724,-7.3892,-7.397,-7.39,-7.3987,-7.4018,-7.4017,-7.4082,-7.4079,-7.4153,-7.4072,-7.4093,-7.4162,-7.4162,-7.4277,-7.4146,-7.4239,-7.4243,-7.4234,-7.4509,-7.4559,-7.4762,-7.4416,-7.442,-7.4424,0,-7.3849,-7.3902,-7.4078,-7.4103,-7.4135,-7.4214,-7.4272,-7.4335,-7.4369,-7.4362,-7.4401,-7.436,-7.4459,-7.4356,-7.4491,-7.4403,-7.4439,-7.4445,-7.4452,-7.446,-7.4345,-7.4526,-7.4826,-7.4857,-7.4467,-7.4463,-7.446,0,-7.4045,-7.416,-7.4281,-7.4305,-7.4337,-7.4394,-7.441,-7.4438,-7.4479,-7.453,-7.4556,-7.4617,-7.465,-7.4698,-7.4674,-7.4601,-7.4814,-7.4708,-7.4811,-7.4812,-7.486,-7.4857,-7.5171,-7.4882,-7.4882,-7.4881,-7.4881,0,-7.4285,-7.4396,-7.437,-7.4444,-7.4566,-7.4532,-7.4653,-7.466,-7.4686,-7.476,-7.4702,-7.4772,-7.4736,-7.4804,-7.4786,-7.4901,-7.4916,-7.4913,-7.4907,-7.4919,-7.492,-7.4943,-7.4929,-7.4889,-7.4887,-7.4886,-7.4884,0,-7.4525,-7.4512,-7.4639,-7.466,-7.4667,-7.4756,-7.4773,-7.4842,-7.4836,-7.4931,-7.4951,-7.4942,-7.5018,-7.4999,-7.5082,-7.507,-7.5215,-7.5191,-7.5205,-7.5199,-7.5303,-7.5294,-7.5643,-7.5687,-7.537,-7.5373,-7.5375,0,-7.468,-7.4764,-7.4793,-7.484,-7.486,-7.4935,-7.4977,-7.4946,-7.4993,-7.5038,-7.5102,-7.5173,-7.5229,-7.5354,-7.5354,-7.5417,-7.5395,-7.5513,-7.5404,-7.5413,-7.5397,-7.5393,-7.5402,-7.5535,-7.5538,-7.5541,-7.5544,0,-7.4955,-7.4945,-7.5009,-7.5072,-7.5124,-7.5172,-7.5213,-7.5254,-7.5226,-7.5281,-7.5359,-7.5403,-7.5488,-7.556,-7.5618,-7.5632,-7.5584,-7.5578,-7.5605,-7.5619,-7.5623,-7.5623,-7.5264,-7.557,-7.5568,-7.5566,-7.5564,-7.5563,-7.5158,-7.523,-7.5262,-7.5336,-7.5364,-7.5405,-7.5471,-7.5474,-7.5539,-7.5607,-7.5584,-7.5674,-7.5705,-7.5779,-7.5801,-7.587,-7.5825,-7.5864,-7.5874,-7.5885,-7.5898,-7.5612,-7.588,-7.5879,-7.5878,-7.5878,-7.5877,0,-7.5431,-7.5449,-7.5517,-7.5578,-7.5636,-7.5586,-7.563,-7.5681,-7.5761,-7.5795,-7.5852,-7.5942,-7.6011,-7.6017,-7.6082,-7.6136,-7.6116,-7.6154,-7.615,-7.6155,-7.5934,-7.5904,-7.617,-7.617,-7.617,-7.617,-7.617,-7.617,-7.5581,-7.57,-7.5693,-7.5825,-7.5842,-7.593,-7.596,-7.5996,-7.6023,-7.6127,-7.6185,-7.6189,-7.6212,-7.6278,-7.6339,-7.6339,-7.6366,-7.6414,-7.6405,-7.6199,-7.617,-7.6142,-7.6114,-7.642,-7.642,-7.662,-7.6622,-7.6623]}]]